weather.gov     
National Weather Service

Terminal Aerodrome Forecast
NWS Homepage
This page is being discontinued on March 12, 2014.
The same data is available at this site. Please update your bookmarks.
Thank you, and we apologize for the inconvenience.
Please send an email to SR-SRH.Webmaster@noaa.gov with any concerns.


Current Version
Previous Version:    01  02  03  04  05  06  07  08  09  10  11  12  13  14  15  16  17  18  19  20  21  22  23  24  25  26  27  28  29  30  
   31  32  33  34  35  36  37  38  39  40  41  42  43  44  45  46  47  
[Printable]
968
FTUS45 KMSO 011720
TAFGPI
TAF
KGPI 011720Z 0118/0218 00000KT P6SM FEW002 BKN040
     FM011900 20006KT P6SM BKN050
     FM012100 21012KT P6SM SCT090
     FM020300 02010KT P6SM BKN090
     FM020600 19008KT P6SM VCSH SCT020 OVC050=




968
FTUS45 KMSO 011720
TAFGPI
TAF
KGPI 011720Z 0118/0218 00000KT P6SM FEW002 BKN040
     FM011900 20006KT P6SM BKN050
     FM012100 21012KT P6SM SCT090
     FM020300 02010KT P6SM BKN090
     FM020600 19008KT P6SM VCSH SCT020 OVC050=


U.S. Dept. of Commerce
NOAA National Weather Service
1325 East West Highway
Silver Spring, MD 20910
E-mail: w-nws.webmaster@noaa.gov
Page last modified: May 16, 2007
NATIONAL WEATHER SERVICE: for Safety, for Work, for Fun - FOR LIFE